Baku, Azerbaijan

5:07 AM +04 on August 16, 2018 (GMT +0400)
Bina

Weather History for UBBB - February, 2018

Change the Weather History Date:

Thursday, February 22, 2018

  Actual Average Record
Temperature  
Mean Temperature 45 °F -  
Max Temperature 49 °F - - ()
Min Temperature 41 °F - - ()
Degree Days  
Heating Degree Days 20    
Moisture  
Dew Point 43 °F    
Average Humidity 94    
Maximum Humidity 100    
Minimum Humidity 84    
Precipitation  
Precipitation 0.08 in - - ()
Sea Level Pressure  
Sea Level Pressure 30.06 in    
Wind  
Wind Speed 4 mph ()    
Max Wind Speed 12 mph    
Max Gust Speed -    
Visibility 4.7 miles    
Events Rain    
T = Trace of Precipitation, MM = Missing Value Source: Averaged Metar Reports

Daily Weather History Graph

Daily Weather History Graph

Search for Another Location

Airport or City:

Astronomy

Feb. 22, 2018 Rise Set
Actual Time 7:24 AM +04 6:22 PM +04
Civil Twilight 6:56 AM +04 6:50 PM +04
Nautical Twilight 6:24 AM +04 7:22 PM +04
Astronomical Twilight 5:53 AM +04 7:53 PM +04
Moon 11:04 AM +04 (2/22) 12:02 AM +04 (2/22)
Length of Visible Light 11h 53m
Length of Day
10h 58m
Waxing Crescent, 39% of the Moon is Illuminated
Feb 22
Waxing Crescent
Feb 23
First Quarter
Mar 2
Full
Mar 9
Last Quarter
Mar 17
New

Hourly Weather History & Observations

Time (+04) Temp. Windchill Dew Point Humidity Pressure Visibility Wind Dir Wind Speed Gust Speed Precip Events Conditions
12:00 AM 41.0 °F 38.0 °F 41.0 °F 100% 30.15 in 3.7 mi North 4.6 mph - N/A   Light Drizzle
12:30 AM 41.0 °F 39.0 °F 41.0 °F 100% 30.15 in 4.3 mi NNW 3.5 mph - N/A   Light Drizzle
1:00 AM 42 °F - 40 °F 91% 30.14 in 6 mi Calm Calm - -   Partly Cloudy
1:00 AM 42.8 °F - 41.0 °F 93% 30.12 in 3.7 mi NNW 2.3 mph - N/A   Overcast
1:30 AM 42.8 °F 40.1 °F 41.0 °F 93% 30.12 in 3.1 mi North 4.6 mph - N/A   Overcast
2:00 AM 42.8 °F 40.1 °F 41.0 °F 93% 30.12 in - North 4.6 mph - N/A   Light Drizzle
2:30 AM 42.8 °F 41.1 °F 41.0 °F 93% 30.12 in 3.1 mi North 3.5 mph - N/A   Light Drizzle
3:00 AM 42.8 °F 41.1 °F 41.0 °F 93% 30.12 in 1.1 mi NNW 3.5 mph - N/A   Drizzle
3:30 AM 42.8 °F - 41.0 °F 93% 30.09 in 1.5 mi NW 2.3 mph - N/A   Light Drizzle
4:00 AM 42 °F - 40 °F 92% 30.10 in 2 mi Calm Calm - - Rain Light Drizzle
4:00 AM 42.8 °F - 41.0 °F 93% 30.09 in - NNW 2.3 mph - N/A   Light Drizzle
4:30 AM 42.8 °F - 41.0 °F 93% 30.09 in - Calm Calm - N/A   Light Drizzle
5:00 AM 42.8 °F - 41.0 °F 93% 30.09 in - Calm Calm - N/A   Overcast
5:30 AM 42.8 °F - 41.0 °F 93% 30.09 in - Calm Calm - N/A   Light Drizzle
6:00 AM 42.8 °F - 42.8 °F 100% 30.09 in 1.5 mi Calm Calm - N/A   Light Drizzle
6:30 AM 42.8 °F - 42.8 °F 100% 30.09 in 1.5 mi SSW 1.2 mph - N/A   Light Drizzle
7:00 AM 43 °F - 42 °F 92% 30.09 in 2 mi Calm Calm - - Rain Light Rain
7:00 AM 42.8 °F - 42.8 °F 100% 30.09 in 1.2 mi Calm Calm - N/A   Light Drizzle
7:30 AM 42.8 °F 41.1 °F 42.8 °F 100% 30.09 in 1.5 mi SSE 3.5 mph - N/A   Light Drizzle
8:00 AM 44.6 °F 42.2 °F 42.8 °F 93% 30.09 in 1.8 mi SSE 4.6 mph - N/A   Overcast
8:30 AM 44.6 °F 41.4 °F 44.6 °F 100% 30.09 in 2.5 mi SSE 5.8 mph - N/A   Overcast
9:00 AM 44.6 °F 40.2 °F 44.6 °F 100% 30.09 in 3.1 mi SSE 8.1 mph - N/A   Overcast
9:30 AM 44.6 °F 40.7 °F 44.6 °F 100% 30.06 in 3.1 mi SSE 6.9 mph - N/A   Overcast
10:00 AM 45 °F - 44 °F 95% 30.08 in 6 mi ESE 4.5 mph - - Rain Light Rain
10:00 AM 46.4 °F 42.4 °F 44.6 °F 93% 30.06 in 2.5 mi SSE 8.1 mph - N/A   Overcast
10:30 AM 46.4 °F 42.4 °F 44.6 °F 93% 30.06 in 3.1 mi South 8.1 mph - N/A   Overcast
11:00 AM 46.4 °F 42.4 °F 46.4 °F 100% 30.06 in 3.7 mi SSE 8.1 mph - N/A   Overcast
11:30 AM 46.4 °F 41.5 °F 46.4 °F 100% 30.06 in 6.2 mi SSE 10.4 mph - N/A   Overcast
12:00 PM 46.4 °F 41.9 °F 46.4 °F 100% 30.06 in 6.2 mi SSE 9.2 mph - N/A   Overcast
12:30 PM 48.2 °F - 46.4 °F 93% 30.04 in 6.2 mi SSE 9.2 mph - N/A   Overcast
1:00 PM 48 °F - 46 °F 89% 30.04 in 6 mi SE 8.9 mph - -   Overcast
1:00 PM 48.2 °F - 46.4 °F 93% 30.04 in 6.2 mi SSE 9.2 mph - N/A   Overcast
1:30 PM 48.2 °F - 46.4 °F 93% 30.04 in 6.2 mi South 9.2 mph - N/A   Overcast
2:00 PM 50.0 °F - 46.4 °F 87% 30.01 in 6.2 mi South 10.4 mph - N/A Rain Light Rain
2:30 PM 48.2 °F - 46.4 °F 93% 30.01 in 6.2 mi SSE 10.4 mph - N/A   Overcast
3:00 PM 48.2 °F - 44.6 °F 87% 30.01 in 6.2 mi SSE 9.2 mph - N/A Rain Light Rain
3:30 PM 48.2 °F - 46.4 °F 93% 30.01 in 6.2 mi South 10.4 mph - N/A   Overcast
4:00 PM 48 °F - 45 °F 84% 30.01 in 6 mi SE 8.9 mph - -   Overcast
4:00 PM 48.2 °F - 44.6 °F 87% 30.01 in 6.2 mi SSE 11.5 mph - N/A   Overcast
4:30 PM 48.2 °F - 44.6 °F 87% 30.01 in 6.2 mi South 9.2 mph - N/A   Overcast
5:00 PM 48.2 °F - 44.6 °F 87% 30.01 in 6.2 mi SSE 9.2 mph - N/A   Overcast
5:30 PM 48.2 °F - 44.6 °F 87% 30.01 in 6.2 mi SSE 8.1 mph - N/A   Overcast
6:00 PM 46.4 °F 42.9 °F 44.6 °F 93% 30.01 in 6.2 mi SSE 6.9 mph - N/A   Overcast
6:30 PM 46.4 °F 42.9 °F 44.6 °F 93% 30.01 in 6.2 mi SSE 6.9 mph - N/A   Overcast
7:00 PM 46 °F - 43 °F 86% 30.03 in 6 mi ESE 4.5 mph - -   Overcast
7:00 PM 46.4 °F 42.9 °F 44.6 °F 93% 30.04 in 6.2 mi SSE 6.9 mph - N/A   Overcast
7:30 PM 46.4 °F 45.2 °F 44.6 °F 93% 30.04 in 6.2 mi South 3.5 mph - N/A   Overcast
8:00 PM 46.4 °F 44.3 °F 44.6 °F 93% 30.04 in 6.2 mi WNW 4.6 mph - N/A   Overcast
8:30 PM 44.6 °F 41.4 °F 42.8 °F 93% 30.04 in 6.2 mi NW 5.8 mph - N/A   Overcast
9:00 PM 42.8 °F 38.6 °F 42.8 °F 100% 30.04 in 6.2 mi NW 6.9 mph - N/A   Overcast
9:30 PM 42.8 °F 39.3 °F 41.0 °F 93% 30.04 in 6.2 mi NW 5.8 mph - N/A   Overcast
10:00 PM 43 °F - 41 °F 91% 30.04 in 6 mi NW 4.5 mph - -   Overcast
10:00 PM 42.8 °F 39.3 °F 41.0 °F 93% 30.04 in 6.2 mi NW 5.8 mph - N/A   Overcast
10:30 PM 42.8 °F 38.6 °F 41.0 °F 93% 30.04 in 6.2 mi WNW 6.9 mph - N/A   Overcast
11:00 PM 42.8 °F 39.3 °F 41.0 °F 93% 30.04 in 6.2 mi NW 5.8 mph - N/A   Overcast
11:30 PM 42.8 °F 39.3 °F 41.0 °F 93% 30.04 in 6.2 mi NW 5.8 mph - N/A   Overcast